Tracking 29510 objects as of 16-Sep-2024
HD Live streaming from Space Station
objects crossing your sky now

FENGYUN 1C DEB

Track FENGYUN 1C DEB now!
10-day predictions


NORAD ID: 32432
Int'l Code: 1999-025DAU
Perigee: 617.5 km
Apogee: 904.4 km
Inclination: 98.2 °
Period: 99.9 minutes
Semi major axis: 7131 km
RCS: 0.0125 m2 (small)
Launch date: May 10, 1999
Source: People's Republic of China (PRC)
Launch site: Taiyaun Space Center, China (TSC)

Note: This is SATELLITE DEBRIS
Your satellite tracking list
Your tracking list is empty




NASA's NSSDC Master Catalog

Two Line Element Set (TLE):
1 32432U 99025DAU 24259.92805593  .00013189  00000-0  32026-2 0  9999
2 32432  98.2215 303.8137 0201159 251.6790 106.2425 14.41411605641431
Source of the keplerian elements: AFSPC